Wind_Speed
17 15 13 12 10 8 7 5 4 1 2 2 3 5 7 9 11 12 13 14 13 14 15 15 15 16 16 17 17 17 16 15 15 14 14 13 12 10 9 9 8 8 7 6
18 16 14 13 12 10 9 8 6 5 4 2 3 4 5 8 10 11 12 12 13 13 13 13 14 15 15 16 16 16 15 14 14 13 13 12 11 10 9 8 8 8 7 6
18 16 16 15 13 12 12 11 10 9 7 6 5 5 5 6 7 9 11 11 11 12 12 13 13 13 14 14 14 14 14 14 13 12 12 12 12 10 9 8 8 8 6 6
20 19 19 17 16 14 13 13 12 12 11 9 8 7 5 5 5 8 10 10 10 10 11 12 13 12 13 13 13 13 13 13 13 13 12 12 11 10 9 8 8 9 7 6
20 20 20 19 17 15 13 13 13 13 12 10 11 10 8 8 7 7 8 10 11 10 10 11 12 12 12 13 13 13 12 13 12 13 12 11 11 10 10 9 9 8 6 6
21 21 22 20 18 17 15 14 14 14 13 12 11 12 10 8 8 8 9 9 10 10 9 10 11 12 11 12 12 12 12 12 12 12 12 10 10 10 11 11 10 9 6 6
23 23 22 22 21 20 18 17 16 16 15 13 12 13 11 9 9 9 9 10 10 9 9 10 11 12 11 11 11 11 11 11 12 11 11 11 11 11 10 11 10 9 7 6
25 24 23 23 22 21 20 20 19 17 16 14 13 14 13 12 10 10 10 11 10 9 10 11 12 12 12 12 11 11 11 11 11 11 11 10 10 10 10 10 9 9 8 7
26 25 24 24 23 23 22 21 20 19 17 16 15 14 14 13 12 12 12 12 12 11 11 12 12 12 12 12 12 12 11 11 10 10 10 10 10 10 9 9 9 9 9 7
27 26 25 24 25 24 23 23 23 22 20 18 16 14 14 13 13 13 13 13 14 13 12 12 12 12 11 11 12 11 12 11 10 10 10 10 10 10 10 9 9 9 8 9
29 28 26 26 27 26 25 25 25 24 23 22 20 17 15 14 14 14 14 14 14 13 12 12 13 13 13 13 13 12 12 12 11 11 10 10 10 10 10 10 8 8 8 9
30 30 28 28 28 28 28 27 26 26 25 24 23 21 18 17 16 15 15 15 14 13 13 13 13 13 13 14 14 13 12 12 12 11 11 10 10 10 11 10 9 9 9 9
33 32 30 30 30 30 30 29 30 29 27 27 25 22 19 19 18 17 17 16 16 15 14 14 15 15 15 15 15 14 13 12 12 12 12 11 11 11 11 11 11 10 10 10
35 35 34 33 31 30 30 30 30 30 29 28 26 24 21 19 19 18 18 18 19 18 17 16 16 16 16 16 16 15 14 14 13 13 13 12 12 12 12 12 11 11 10 11
36 36 36 34 32 31 31 30 30 31 30 30 26 25 23 21 20 20 20 21 21 21 20 19 19 19 18 18 17 17 16 16 16 15 14 14 13 13 13 13 12 12 12 12
37 36 36 35 34 34 33 31 31 31 31 31 29 27 25 23 22 23 23 23 23 23 22 21 22 21 20 20 19 18 18 17 17 17 16 15 15 15 14 14 14 14 14 14
37 36 36 36 36 35 35 33 32 32 31 31 31 29 27 26 25 25 25 25 25 24 24 23 23 23 23 22 21 20 19 18 18 18 18 18 18 17 16 16 16 15 15 15
39 37 37 37 37 38 36 35 34 34 33 32 32 31 30 30 29 28 28 28 27 26 27 26 25 25 23 23 23 22 20 20 19 19 19 19 19 18 18 18 17 16 16 17
40 39 39 39 39 39 37 36 35 35 35 34 33 32 31 30 30 30 30 29 29 28 28 28 27 26 25 24 24 23 22 22 21 21 21 20 20 20 20 19 18 18 18 18
41 41 41 40 40 41 38 37 36 37 37 35 34 33 32 32 32 31 30 30 30 30 29 29 28 27 26 25 25 25 25 25 24 23 22 22 21 21 21 20 20 20 20 20
42 41 41 40 41 41 38 37 37 39 38 36 36 35 34 34 34 32 32 32 31 30 30 30 30 30 29 28 28 27 27 26 25 25 24 24 23 23 22 22 21 21 20 20
40 40 41 40 41 40 39 37 38 38 38 38 37 36 36 35 34 34 34 33 33 32 32 31 31 32 31 31 30 28 27 26 26 26 26 25 25 23 23 22 22 22 22 22
40 40 40 40 40 39 39 38 38 39 39 38 38 38 38 37 37 37 36 36 35 35 35 33 33 32 32 32 31 29 28 28 27 27 27 26 26 26 25 25 24 24 25 25
38 39 39 40 40 39 39 39 39 39 39 39 38 39 38 38 38 38 38 38 37 37 37 36 34 33 33 33 33 32 31 30 29 28 28 28 27 27 27 27 26 26 26 27
37 37 38 39 40 39 39 39 39 39 39 39 39 38 38 38 38 38 39 38 38 38 38 37 36 35 34 34 34 34 33 32 31 29 29 29 29 28 29 29 28 28 28 28
36 37 38 38 39 39 38 38 38 38 39 39 39 40 39 38 37 39 40 39 39 39 39 38 37 36 35 34 34 34 33 33 32 31 31 31 31 31 30 30 30 30 30 29
Wind_Direction
198 194 187 181 177 180 188 212 226 258 321 9 359 353 9 13 9 12 18 22 23 25 29 30 31 33 35 36 38 39 40 45 47 46 45 41 39 40 42 43 42 44 49 50
201 198 193 190 185 191 203 205 215 228 260 291 306 316 345 3 0 4 6 12 18 18 20 24 28 29 32 34 35 36 38 40 41 40 40 36 33 34 36 40 41 40 42 41
206 200 202 203 198 201 211 216 220 229 238 260 272 281 315 341 344 356 1 8 8 10 12 17 20 25 25 27 31 32 32 35 34 32 33 29 28 29 30 34 35 31 35 38
209 206 209 210 206 209 212 214 221 227 230 239 256 268 283 302 325 343 353 354 354 358 3 10 14 17 19 20 24 26 25 26 27 24 26 25 25 27 26 25 24 22 24 25
214 213 216 217 213 215 221 222 228 237 235 235 242 261 274 287 305 322 333 338 340 347 357 3 7 8 10 14 16 18 19 17 17 16 18 24 27 23 22 19 16 15 12 16
216 215 217 217 215 220 221 224 232 237 236 234 238 249 264 280 296 308 319 325 327 332 342 349 353 360 3 5 6 10 13 12 13 13 16 19 20 21 18 16 13 9 6 6
216 215 218 218 216 221 221 223 226 228 231 231 239 246 258 273 287 300 309 315 316 319 327 336 345 351 354 355 356 359 4 4 3 5 9 14 16 17 13 12 9 8 7 3
218 217 219 220 219 220 223 224 225 229 233 233 237 249 257 265 273 286 295 303 304 306 314 320 332 341 344 346 348 349 350 352 353 355 359 3 5 6 6 6 4 4 3 360
222 220 220 223 224 223 223 225 227 233 238 234 236 245 250 259 266 277 280 292 297 298 304 310 319 328 333 337 339 340 337 339 344 346 349 352 353 356 357 358 1 1 358 355
223 221 219 220 222 222 225 224 226 232 233 235 234 239 246 254 262 267 273 283 290 287 289 301 308 312 317 324 329 330 329 329 331 334 337 341 344 345 347 348 351 354 355 351
223 223 219 219 222 223 223 225 227 230 233 235 237 241 248 254 258 266 276 279 283 282 285 290 299 307 310 313 316 318 324 323 323 324 327 329 332 335 337 339 336 341 342 343
223 225 223 221 224 225 225 227 230 232 233 236 239 242 247 255 259 266 272 274 278 284 285 289 296 303 306 308 311 310 315 317 317 315 316 318 320 325 329 331 328 327 329 330
224 226 225 222 223 225 227 229 230 233 236 238 240 243 245 253 258 265 272 275 278 283 289 293 294 296 300 303 305 306 308 308 308 306 306 308 311 315 317 320 318 318 318 319
226 227 226 225 226 229 230 231 231 232 235 240 242 244 246 252 256 261 266 272 278 283 287 290 292 292 294 296 297 299 299 299 299 299 297 299 302 308 311 311 311 311 311 313
225 227 228 228 229 229 231 232 234 236 238 239 241 243 245 250 253 258 263 268 273 278 280 284 286 288 291 291 291 293 294 293 294 294 294 293 294 299 302 304 305 304 303 303
225 227 227 229 229 230 230 230 233 236 238 240 241 241 243 246 252 256 260 265 268 270 273 278 281 284 286 286 288 290 290 289 289 290 292 291 290 294 296 297 299 298 297 296
228 229 229 229 229 231 230 230 232 235 238 240 243 244 244 246 250 255 260 264 267 269 271 275 279 280 281 282 282 287 288 287 285 284 286 288 287 288 290 291 294 293 290 290
230 231 232 232 230 231 233 232 232 234 236 238 242 245 247 250 251 254 259 265 268 271 274 274 276 278 279 279 280 282 283 284 283 284 285 287 285 284 286 287 290 290 288 288
231 232 232 233 233 234 234 233 233 233 235 238 241 245 247 249 251 253 257 261 266 270 273 275 274 275 276 278 278 277 280 281 281 281 282 284 285 284 284 286 289 290 291 290
232 233 233 233 234 235 235 234 235 237 237 238 242 244 246 249 250 253 257 260 263 267 271 273 272 274 275 277 277 278 280 280 279 279 279 282 283 283 283 284 287 288 289 290
232 232 233 234 235 236 236 235 236 237 239 239 241 242 244 247 250 253 256 259 262 265 267 270 273 273 274 276 277 277 277 277 277 277 277 279 280 279 280 281 283 285 289 290
231 232 234 235 236 236 236 237 238 240 241 241 241 243 245 248 251 253 256 259 261 263 265 268 270 272 273 275 276 276 277 276 275 274 276 277 279 280 279 280 281 284 287 288
232 234 235 236 238 239 237 238 239 240 241 241 242 243 245 248 251 253 256 259 262 264 264 266 268 270 272 273 273 274 275 274 273 273 274 275 276 278 279 279 281 281 282 283
232 234 235 237 238 239 239 238 239 240 240 241 242 243 246 247 250 254 257 259 261 263 265 267 268 269 270 270 270 272 274 274 273 271 272 273 275 276 278 278 279 280 281 281
232 234 235 237 239 240 241 242 242 242 243 243 244 247 249 248 250 253 255 258 259 261 264 265 267 268 268 268 269 270 271 272 272 270 269 270 272 273 274 275 276 278 279 280
232 235 236 239 241 242 243 244 245 245 245 246 247 248 250 249 250 253 255 258 259 260 262 264 266 266 267 267 268 269 270 271 270 269 268 268 270 271 272 274 275 276 277 278
Height
5927 5930 5931 5933 5935 5935 5936 5937 5938 5939 5939 5939 5938 5939 5938 5938 5937 5936 5935 5933 5931 5930 5928 5926 5923 5921 5918 5916 5913 5911 5909 5907 5906 5904 5903 5901 5900 5899 5897 5896 5895 5894 5893 5891
5925 5928 5930 5931 5932 5933 5934 5935 5936 5938 5938 5938 5938 5938 5938 5937 5937 5936 5935 5934 5932 5931 5929 5927 5925 5922 5920 5918 5916 5913 5911 5909 5907 5906 5904 5903 5901 5900 5898 5897 5896 5894 5893 5892
5922 5926 5927 5928 5930 5931 5932 5934 5935 5936 5937 5937 5938 5937 5937 5936 5936 5936 5935 5934 5933 5931 5930 5928 5926 5924 5922 5920 5917 5915 5913 5911 5909 5907 5906 5904 5902 5900 5899 5898 5896 5895 5893 5892
5918 5921 5923 5925 5927 5929 5930 5932 5933 5934 5935 5936 5937 5936 5936 5935 5935 5935 5934 5934 5933 5932 5930 5929 5927 5925 5923 5921 5918 5916 5914 5912 5910 5908 5906 5904 5903 5901 5899 5898 5896 5895 5894 5892
5915 5917 5920 5922 5924 5927 5929 5930 5931 5932 5933 5934 5935 5935 5935 5933 5933 5934 5933 5933 5932 5931 5930 5929 5927 5925 5923 5921 5919 5917 5915 5913 5911 5909 5907 5905 5903 5901 5899 5898 5896 5895 5894 5893
5911 5913 5916 5919 5921 5923 5926 5927 5928 5929 5930 5931 5933 5933 5933 5931 5932 5932 5932 5931 5931 5931 5930 5929 5928 5925 5923 5922 5920 5917 5915 5913 5911 5910 5907 5905 5903 5901 5900 5898 5896 5895 5894 5892
5906 5909 5911 5915 5917 5920 5922 5924 5925 5926 5926 5928 5929 5929 5930 5930 5930 5930 5930 5930 5929 5929 5929 5928 5927 5925 5923 5921 5920 5918 5916 5914 5912 5909 5908 5905 5904 5902 5900 5898 5896 5895 5893 5892
5900 5904 5907 5910 5913 5915 5918 5920 5921 5923 5923 5925 5925 5925 5927 5928 5928 5927 5928 5928 5927 5927 5927 5926 5925 5924 5922 5920 5919 5917 5915 5913 5912 5910 5908 5906 5904 5902 5900 5898 5897 5895 5893 5891
5894 5899 5903 5905 5908 5911 5913 5914 5917 5918 5919 5920 5921 5922 5923 5924 5925 5925 5925 5925 5924 5924 5924 5924 5923 5922 5921 5919 5917 5916 5914 5912 5911 5909 5907 5905 5903 5901 5900 5898 5896 5894 5893 5891
5889 5893 5897 5900 5903 5905 5908 5910 5912 5913 5914 5915 5917 5918 5920 5921 5921 5922 5922 5922 5922 5922 5922 5922 5921 5920 5919 5917 5916 5914 5912 5911 5909 5908 5906 5904 5902 5901 5899 5897 5896 5894 5893 5891
5882 5887 5891 5894 5897 5900 5903 5904 5906 5908 5910 5911 5912 5916 5916 5917 5918 5918 5919 5919 5919 5919 5920 5920 5919 5918 5917 5915 5914 5912 5910 5908 5907 5906 5904 5903 5901 5899 5898 5896 5895 5893 5892 5890
5875 5880 5884 5888 5892 5894 5897 5899 5901 5903 5905 5906 5908 5912 5912 5912 5913 5914 5915 5916 5916 5916 5916 5916 5916 5915 5914 5912 5911 5910 5908 5906 5905 5903 5902 5901 5899 5898 5896 5894 5893 5891 5890 5888
5868 5872 5877 5881 5886 5888 5890 5892 5895 5897 5899 5901 5903 5907 5907 5908 5909 5910 5910 5911 5911 5912 5912 5912 5911 5911 5910 5909 5908 5907 5906 5904 5902 5901 5899 5898 5897 5895 5894 5892 5891 5889 5888 5886
5862 5865 5870 5874 5878 5881 5884 5886 5888 5891 5893 5895 5898 5900 5902 5903 5904 5905 5905 5906 5906 5907 5907 5907 5907 5906 5906 5906 5905 5903 5902 5901 5899 5897 5896 5895 5894 5893 5891 5889 5888 5887 5885 5884
5854 5858 5862 5867 5871 5874 5877 5880 5882 5884 5886 5889 5892 5894 5897 5898 5899 5899 5900 5900 5901 5901 5902 5902 5903 5902 5902 5901 5900 5899 5898 5896 5895 5893 5893 5892 5891 5889 5888 5887 5885 5884 5882 5881
5846 5850 5855 5859 5863 5866 5869 5873 5875 5878 5880 5883 5885 5888 5890 5892 5893 5894 5894 5895 5895 5896 5896 5897 5897 5897 5897 5896 5895 5894 5893 5892 5891 5889 5889 5888 5887 5885 5884 5883 5882 5880 5879 5877
5838 5842 5847 5851 5855 5858 5861 5866 5868 5871 5873 5876 5878 5881 5883 5885 5886 5887 5888 5888 5889 5890 5890 5890 5890 5891 5891 5890 5889 5888 5887 5886 5885 5885 5884 5883 5882 5881 5880 5879 5877 5876 5875 5873
5830 5833 5838 5842 5847 5849 5857 5858 5861 5863 5866 5868 5871 5873 5876 5877 5879 5880 5881 5882 5883 5883 5883 5883 5883 5883 5884 5884 5883 5883 5881 5880 5879 5879 5878 5877 5876 5875 5875 5874 5872 5871 5870 5869
5821 5825 5829 5832 5836 5841 5847 5850 5852 5855 5858 5861 5863 5866 5868 5869 5871 5873 5874 5875 5876 5877 5876 5876 5875 5876 5876 5876 5876 5875 5875 5874 5874 5873 5872 5872 5871 5870 5869 5868 5867 5866 5865 5864
5812 5816 5820 5823 5827 5831 5839 5841 5844 5847 5849 5853 5855 5858 5860 5862 5864 5866 5867 5868 5869 5870 5870 5869 5870 5869 5869 5869 5869 5868 5868 5868 5867 5867 5866 5866 5865 5864 5863 5862 5861 5860 5859 5858
5803 5806 5810 5814 5817 5822 5829 5832 5835 5838 5842 5845 5847 5850 5852 5854 5856 5858 5859 5860 5861 5862 5862 5862 5863 5863 5862 5861 5861 5861 5861 5860 5860 5860 5859 5859 5858 5857 5856 5856 5855 5854 5852 5851
5793 5797 5801 5804 5808 5815 5819 5822 5825 5828 5831 5835 5838 5840 5843 5845 5847 5848 5850 5851 5852 5853 5854 5854 5854 5855 5854 5854 5854 5853 5853 5853 5852 5852 5852 5851 5851 5850 5849 5848 5848 5847 5846 5844
5783 5788 5792 5796 5802 5805 5808 5812 5815 5818 5822 5825 5828 5830 5833 5835 5837 5839 5841 5842 5844 5844 5845 5846 5846 5846 5846 5846 5845 5845 5844 5844 5844 5844 5844 5844 5843 5843 5842 5841 5840 5839 5839 5837
5775 5779 5782 5786 5790 5794 5798 5801 5805 5808 5812 5815 5817 5820 5822 5825 5827 5830 5832 5833 5834 5835 5836 5836 5836 5836 5837 5837 5836 5836 5835 5835 5835 5835 5835 5835 5835 5835 5834 5833 5833 5832 5831 5830
5767 5770 5773 5777 5781 5785 5789 5791 5795 5798 5802 5804 5807 5810 5812 5815 5817 5819 5821 5822 5823 5824 5825 5826 5826 5826 5826 5826 5827 5826 5826 5826 5825 5825 5826 5826 5826 5826 5826 5825 5824 5823 5823 5822
5759 5762 5766 5769 5773 5776 5779 5782 5785 5788 5791 5794 5797 5800 5802 5804 5807 5809 5810 5811 5812 5814 5815 5816 5816 5816 5816 5816 5816 5816 5816 5815 5815 5815 5816 5816 5817 5817 5817 5816 5816 5815 5814 5813